When you browse on this site, cookies collect data to enhance your experience and personalize the content and advertising you see.
Visit our Privacy Policy to learn more. By continuing to use the site, you agree to this use of cookies and data.
  • In United Kingdom
  • List of Countries
  • For 7 days
  • Water Temperature
  • Weather Map
  • Weather Widgets
  • user-avatar
    Login

    Hourly Weather Pivnichne

    Today, 20 September, Friday

    Time Temperature Precipitation Wind Pressure Humidity
    00:00 +13°C° 0 mm 2 mps 758 mmHg 45%
    01:00 +13°C° 0 mm 2 mps 758 mmHg 46%
    02:00 +12°C° 0 mm 2 mps 758 mmHg 48%
    03:00 +12°C° 0 mm 2 mps 758 mmHg 49%
    04:00 +12°C° 0 mm 2 mps 758 mmHg 51%
    05:00 +10°C° 0 mm 2 mps 757 mmHg 52%
    06:00 +12°C° 0 mm 2 mps 757 mmHg 50%
    07:00 +14°C° 0 mm 2 mps 757 mmHg 47%
    08:00 +15°C° 0 mm 2 mps 757 mmHg 44%
    09:00 +16°C° 0 mm 2 mps 757 mmHg 41%
    10:00 +17°C° 0 mm 2 mps 757 mmHg 37%
    11:00 +18°C° 0 mm 3 mps 756 mmHg 33%
    12:00 +18°C° 0 mm 3 mps 756 mmHg 32%
    13:00 +19°C° 0 mm 3 mps 756 mmHg 31%
    14:00 +19°C° 0 mm 3 mps 755 mmHg 29%
    15:00 +18°C° 0 mm 3 mps 755 mmHg 31%
    16:00 +18°C° 0 mm 4 mps 755 mmHg 32%
    17:00 +17°C° 0 mm 4 mps 755 mmHg 33%
    18:00 +15°C° 0 mm 4 mps 755 mmHg 39%
    19:00 +13°C° 0 mm 4 mps 755 mmHg 45%
    20:00 +12°C° 0 mm 3 mps 756 mmHg 51%
    21:00 +11°C° 0.2 mm 3 mps 756 mmHg 55%
    22:00 +11°C° 0.2 mm 3 mps 756 mmHg 59%
    23:00 +10°C° 0.2 mm 3 mps 756 mmHg 63%

    Tomorrow, 21 September, Saturday

    Time Temperature Precipitation Wind Pressure Humidity
    00:00 +10°C° 0 mm 4 mps 756 mmHg 66%
    01:00 +8°C° 0 mm 4 mps 756 mmHg 69%
    02:00 +8°C° 0 mm 4 mps 756 mmHg 73%
    03:00 +8°C° 0 mm 4 mps 756 mmHg 76%
    04:00 +7°C° 0 mm 4 mps 756 mmHg 79%
    05:00 +7°C° 0 mm 5 mps 756 mmHg 82%
    06:00 +8°C° 0 mm 5 mps 757 mmHg 75%
    07:00 +9°C° 0 mm 6 mps 757 mmHg 68%
    08:00 +10°C° 0 mm 7 mps 757 mmHg 61%
    09:00 +11°C° 0 mm 7 mps 758 mmHg 55%
    10:00 +12°C° 0 mm 7 mps 758 mmHg 49%
    11:00 +14°C° 0 mm 7 mps 758 mmHg 43%
    12:00 +14°C° 0.1 mm 7 mps 758 mmHg 42%
    13:00 +14°C° 0.1 mm 7 mps 758 mmHg 40%
    14:00 +15°C° 0.1 mm 7 mps 758 mmHg 39%
    15:00 +14°C° 0 mm 7 mps 758 mmHg 41%
    16:00 +12°C° 0 mm 7 mps 758 mmHg 43%
    17:00 +12°C° 0 mm 7 mps 759 mmHg 46%
    18:00 +10°C° 0 mm 6 mps 759 mmHg 49%
    19:00 +9°C° 0 mm 5 mps 759 mmHg 53%
    20:00 +9°C° 0 mm 3 mps 760 mmHg 56%
    21:00 +9°C° 0 mm 3 mps 760 mmHg 57%
    22:00 +8°C° 0 mm 3 mps 760 mmHg 58%
    23:00 +8°C° 0 mm 3 mps 760 mmHg 58%

    Day after tomorrow, 22 September, Sunday

    Time Temperature Precipitation Wind Pressure Humidity
    00:00 +8°C° 0 mm 3 mps 760 mmHg 58%
    01:00 +7°C° 0 mm 4 mps 760 mmHg 57%
    02:00 +6°C° 0 mm 4 mps 760 mmHg 57%
    03:00 +7°C° 0 mm 4 mps 759 mmHg 51%
    04:00 +8°C° 0 mm 5 mps 759 mmHg 46%
    05:00 +9°C° 0 mm 5 mps 759 mmHg 41%
    06:00 +10°C° 0 mm 6 mps 759 mmHg 44%
    07:00 +11°C° 0 mm 6 mps 759 mmHg 48%
    08:00 +12°C° 0 mm 7 mps 759 mmHg 52%
    09:00 +15°C° 0 mm 7 mps 758 mmHg 50%
    10:00 +17°C° 0 mm 7 mps 758 mmHg 49%
    11:00 +20°C° 0 mm 8 mps 758 mmHg 48%
    12:00 +20°C° 0 mm 8 mps 758 mmHg 46%
    13:00 +21°C° 0 mm 8 mps 757 mmHg 45%
    14:00 +21°C° 0 mm 8 mps 757 mmHg 43%
    15:00 +21°C° 0 mm 7 mps 757 mmHg 43%
    16:00 +21°C° 0 mm 6 mps 756 mmHg 43%
    17:00 +21°C° 0 mm 5 mps 756 mmHg 43%
    18:00 +19°C° 0 mm 5 mps 756 mmHg 47%
    19:00 +17°C° 0 mm 5 mps 756 mmHg 50%
    20:00 +17°C° 0 mm 4 mps 756 mmHg 54%
    21:00 +15°C° 0 mm 5 mps 756 mmHg 55%
    22:00 +15°C° 0 mm 6 mps 756 mmHg 57%
    23:00 +15°C° 0 mm 6 mps 756 mmHg 58%

    23 September, Monday

    Time Temperature Precipitation Wind Pressure Humidity
    00:00 +14°C° 0 mm 6 mps 756 mmHg 63%
    01:00 +14°C° 0 mm 5 mps 756 mmHg 68%
    02:00 +13°C° 0 mm 5 mps 756 mmHg 72%
    03:00 +13°C° 0 mm 4 mps 756 mmHg 75%
    04:00 +12°C° 0 mm 4 mps 756 mmHg 77%
    05:00 +12°C° 0 mm 3 mps 756 mmHg 79%
    06:00 +13°C° 0 mm 3 mps 757 mmHg 72%
    07:00 +16°C° 0 mm 3 mps 757 mmHg 65%
    08:00 +18°C° 0 mm 3 mps 757 mmHg 58%
    09:00 +19°C° 0 mm 3 mps 757 mmHg 54%
    10:00 +20°C° 0 mm 3 mps 758 mmHg 51%
    11:00 +21°C° 0 mm 2 mps 758 mmHg 47%
    12:00 +21°C° 0 mm 2 mps 758 mmHg 45%
    13:00 +23°C° 0 mm 2 mps 757 mmHg 43%
    14:00 +23°C° 0 mm 2 mps 757 mmHg 41%
    15:00 +21°C° 0 mm 2 mps 757 mmHg 42%
    16:00 +21°C° 0 mm 2 mps 757 mmHg 43%
    17:00 +20°C° 0 mm 2 mps 757 mmHg 44%
    18:00 +19°C° 0 mm 3 mps 757 mmHg 45%
    19:00 +17°C° 0 mm 3 mps 757 mmHg 47%
    20:00 +16°C° 0 mm 3 mps 757 mmHg 48%
    21:00 +14°C° 0 mm 3 mps 757 mmHg 52%
    22:00 +14°C° 0 mm 3 mps 758 mmHg 55%
    23:00 +13°C° 0 mm 3 mps 758 mmHg 59%

    24 September, Tuesday

    Time Temperature Precipitation Wind Pressure Humidity
    00:00 +13°C° 0 mm 3 mps 757 mmHg 66%
    01:00 +13°C° 0 mm 3 mps 757 mmHg 72%
    02:00 +13°C° 0 mm 3 mps 757 mmHg 79%
    03:00 +13°C° 0 mm 3 mps 757 mmHg 80%
    04:00 +13°C° 0 mm 3 mps 757 mmHg 80%
    05:00 +13°C° 0 mm 3 mps 757 mmHg 80%
    06:00 +14°C° 0 mm 3 mps 757 mmHg 75%
    07:00 +17°C° 0 mm 3 mps 757 mmHg 69%
    08:00 +18°C° 0 mm 3 mps 757 mmHg 64%
    09:00 +20°C° 0 mm 3 mps 757 mmHg 56%
    10:00 +21°C° 0 mm 3 mps 757 mmHg 47%
    11:00 +24°C° 0 mm 3 mps 757 mmHg 39%
    12:00 +23°C° 0 mm 4 mps 756 mmHg 39%
    13:00 +23°C° 0 mm 4 mps 756 mmHg 39%
    14:00 +23°C° 0 mm 4 mps 755 mmHg 39%
    15:00 +22°C° 0 mm 4 mps 755 mmHg 44%
    16:00 +21°C° 0 mm 4 mps 755 mmHg 49%
    17:00 +20°C° 0 mm 4 mps 754 mmHg 55%
    18:00 +19°C° 0 mm 4 mps 754 mmHg 60%
    19:00 +18°C° 0 mm 3 mps 755 mmHg 66%
    20:00 +16°C° 0 mm 3 mps 755 mmHg 71%
    21:00 +16°C° 0 mm 3 mps 754 mmHg 70%
    22:00 +16°C° 0 mm 3 mps 754 mmHg 69%
    23:00 +14°C° 0 mm 3 mps 754 mmHg 67%

    25 September, Wednesday

    Time Temperature Precipitation Wind Pressure Humidity
    00:00 +14°C° 0 mm 3 mps 754 mmHg 68%
    01:00 +14°C° 0 mm 3 mps 753 mmHg 68%
    02:00 +14°C° 0 mm 4 mps 753 mmHg 68%
    03:00 +14°C° 0 mm 4 mps 753 mmHg 68%
    04:00 +14°C° 0 mm 4 mps 753 mmHg 67%
    05:00 +14°C° 0 mm 4 mps 753 mmHg 67%
    06:00 +15°C° 0 mm 4 mps 753 mmHg 61%
    07:00 +18°C° 0 mm 4 mps 753 mmHg 56%
    08:00 +19°C° 0 mm 5 mps 753 mmHg 51%
    09:00 +20°C° 0 mm 5 mps 753 mmHg 46%
    10:00 +22°C° 0 mm 5 mps 753 mmHg 40%
    11:00 +25°C° 0 mm 5 mps 753 mmHg 35%
    12:00 +25°C° 0 mm 4 mps 752 mmHg 35%
    13:00 +25°C° 0 mm 4 mps 752 mmHg 34%
    14:00 +25°C° 0 mm 4 mps 752 mmHg 33%
    15:00 +25°C° 0 mm 3 mps 752 mmHg 37%
    16:00 +24°C° 0 mm 3 mps 752 mmHg 40%
    17:00 +22°C° 0 mm 3 mps 752 mmHg 44%
    18:00 +21°C° 0 mm 2 mps 752 mmHg 50%
    19:00 +20°C° 0 mm 1 mps 752 mmHg 57%
    20:00 +19°C° 0 mm 1 mps 753 mmHg 63%
    21:00 +19°C° 0 mm 1 mps 753 mmHg 61%
    22:00 +19°C° 0 mm 1 mps 753 mmHg 60%
    23:00 +18°C° 0 mm 2 mps 752 mmHg 58%
    Show more